FW3161 Weather Reports


time (UTC)temp
F
wind
direction
speed
knots
gust
knots
rain 1hr
in
rain 24hr
in
rain mn
in
humidity
%
barometer
mb
20260506014522 75 360 7.8 12.2 0.00 0.00 0.00 13 1009.3
20260506013034 75 360 6.1 13.9 0.00 0.00 0.00 12 1009.3
20260506011524 76 251 5.2 11.3 0.00 0.00 0.00 12 1009.1
20260506010019 77 201 7.0 13.9 0.00 0.00 0.00 12 1008.9
20260506004518 77 211 9.6 17.4 0.00 0.00 0.00 12 1008.8
20260506003015 76 360 8.7 14.8 0.00 0.00 0.00 13 1008.7
20260506001514 77 360 8.7 18.2 0.00 0.00 0.00 14 1008.6
20260506000012 77 360 7.8 16.5 0.00 0.00 0.00 12 1008.5
20260505234512 78 360 7.8 16.5 0.00 0.00 0.00 12 1008.4
20260505233016 79 360 7.0 13.9 0.00 0.00 0.00 9 1008.4
20260505231507 78 360 3.5 8.7 0.00 0.00 0.00 11 1008.5
20260505230007 78 360 7.8 16.5 0.00 0.00 0.00 13 1008.6
20260505224511 79 360 6.1 17.4 0.00 0.00 0.00 12 1008.7
20260505223004 78 360 7.0 12.2 0.00 0.00 0.00 13 1008.8
20260505221501 77 188 6.1 11.3 0.00 0.00 0.00 14 1009.1
20260505220104 77 204 4.3 13.0 0.00 0.00 0.00 16 1009.4
20260505214700 77 202 4.3 14.8 0.00 0.00 0.00 16 1009.5
20260505213058 76 360 7.0 13.0 0.00 0.00 0.00 16 1009.6
20260505211604 75 360 3.5 15.6 0.00 0.00 0.00 17 1009.9
20260505210106 77 272 7.0 18.2 0.00 0.00 0.00 16 1010.0
20260505204603 75 360 6.1 19.1 0.00 0.00 0.00 17 1010.1
20260505203107 77 219 7.0 14.8 0.00 0.00 0.00 16 1010.0
20260505201555 77 360 5.2 13.0 0.00 0.00 0.00 16 1010.1
20260505200108 76 360 2.6 11.3 0.00 0.00 0.00 17 1010.2
20260505194554 77 360 5.2 12.2 0.00 0.00 0.00 16 1010.4
20260505193102 77 360 5.2 13.9 0.00 0.00 0.00 17 1010.4
20260505191653 77 360 7.8 16.5 0.00 0.00 0.00 17 1010.6
20260505190049 75 46 5.2 18.2 0.00 0.00 0.00 19 1010.7
20260505184549 76 188 6.1 17.4 0.00 0.00 0.00 20 1010.7
20260505183047 75 205 6.1 13.0 0.00 0.00 0.00 21 1010.9
20260505181554 74 147 5.2 15.6 0.00 0.00 0.00 21 1011.0
20260505180042 74 190 4.3 17.4 0.00 0.00 0.00 24 1011.1
20260505174541 74 186 5.2 11.3 0.00 0.00 0.00 25 1011.0
20260505173041 73 219 7.0 13.9 0.00 0.00 0.00 24 1010.9
20260505171538 73 211 2.6 9.6 0.00 0.00 0.00 24 1010.9
20260505170038 72 360 5.2 12.2 0.00 0.00 0.00 25 1010.9
20260505164536 72 360 1.7 10.4 0.00 0.00 0.00 24 1011.0
20260505163034 71 360 4.3 8.7 0.00 0.00 0.00 25 1011.0
20260505161541 69 360 3.5 9.6 0.00 0.00 0.00 26 1011.1
20260505153031 68 360 3.5 11.3 0.00 0.00 0.00 26 1011.0
20260505151530 67 360 3.5 10.4 0.00 0.00 0.00 28 1011.0
20260505124523 64 360 0.9 3.5 0.00 0.00 0.00 44 1009.8
20260505123022 64 360 2.6 7.0 0.00 0.00 0.00 43 1009.8
20260505121531 65 360 2.6 7.0 0.00 0.00 0.00 42 1009.6
20260505120019 65 360 0.9 5.2 0.00 0.00 0.00 42 1009.6
20260505114518 66 360 2.6 5.2 0.00 0.00 0.00 41 1009.4
20260505113016 66 360 2.6 5.2 0.00 0.00 0.00 40 1009.5
20260505111515 66 360 2.6 7.8 0.00 0.00 0.00 40 1009.4
20260505101510 67 360 2.6 8.7 0.00 0.00 0.00 38 1009.7
20260505100014 68 360 5.2 11.3 0.00 0.00 0.00 38 1009.8
20260505094502 68 360 4.3 11.3 0.00 0.00 0.00 36 1010.1
20260505093101 69 360 6.1 13.0 0.00 0.00 0.00 34 1010.1
20260505091605 69 360 5.2 11.3 0.00 0.00 0.00 33 1010.4
20260505084556 69 360 2.6 7.0 0.00 0.00 0.00 31 1010.5
20260505083100 69 360 1.7 7.0 0.00 0.00 0.00 30 1010.6
20260505081557 70 360 6.1 11.3 0.00 0.00 0.00 28 1010.9
20260505080050 70 360 1.7 9.6 0.00 0.00 0.00 26 1010.8
20260505074544 71 360 2.6 9.6 0.00 0.00 0.00 26 1011.0
20260505073045 71 360 3.5 8.7 0.00 0.00 0.00 26 1010.7
20260505071547 71 360 4.3 10.4 0.00 0.00 0.00 25 1010.5
20260505070037 72 360 4.3 10.4 0.00 0.00 0.00 26 1010.6
20260505064540 72 360 4.3 9.6 0.00 0.00 0.00 26 1010.6
20260505063039 72 360 2.6 7.0 0.00 0.00 0.00 26 1010.5
20260505061537 73 360 3.5 9.6 0.00 0.00 0.00 26 1010.4
20260505060038 73 360 2.6 7.0 0.00 0.00 0.00 27 1010.3
20260505054538 73 360 2.6 5.2 0.00 0.00 0.00 28 1010.3
20260505053036 73 360 1.7 5.2 0.00 0.00 0.00 29 1010.2
20260505051532 73 360 0.9 5.2 0.00 0.00 0.00 30 1010.5
20260505041530 73 360 1.7 4.3 0.00 0.00 0.00 28 1010.6
20260505040031 74 360 1.7 5.2 0.00 0.00 0.00 27 1010.8
20260505034529 74 360 2.6 5.2 0.00 0.00 0.00 26 1010.6
20260505033036 74 360 1.7 4.3 0.00 0.00 0.00 26 1010.1
20260505031530 74 360 1.7 5.2 0.00 0.00 0.00 25 1010.0
20260505030028 74 360 1.7 7.0 0.00 0.00 0.00 24 1009.8
20260505024543 74 360 1.7 7.0 0.00 0.00 0.00 24 1009.7
20260505023036 74 360 2.6 8.7 0.00 0.00 0.00 24 1009.7
20260505021526 75 360 3.5 8.7 0.00 0.00 0.00 25 1009.7
20260505020025 75 360 1.7 8.7 0.00 0.00 0.00 26 1009.5